Wind_Speed
43 41 42 47 51 50 47 47 46 44 42 41 40 39 40 40 40 42 43 42 42 38 37 40 40 38 38 38 40 42 43 44 48 50 49 51 54 56 58 59 59 58 54 50 47 47 46 45 44 42 41 41 41 41 40 39 39 38 37 37 38 39 39 40 41 41 41 41 41 40 40 41 41 41 41 41 42 42 42 43 43 44 44 44 44 44
45 42 44 51 52 50 49 49 49 48 47 45 43 41 40 40 40 41 42 42 42 39 38 40 39 38 40 41 41 41 41 45 50 51 50 52 55 58 60 61 61 59 55 50 49 49 48 46 45 44 44 43 43 43 43 43 42 42 41 41 42 42 42 42 42 42 42 43 44 43 43 43 43 43 44 44 44 44 44 45 45 46 45 44 44 44
46 44 48 53 53 51 51 51 51 51 51 50 49 47 44 45 43 41 43 43 42 39 38 39 39 37 39 40 42 43 44 47 50 52 52 53 56 59 61 61 61 59 56 53 53 52 50 48 47 46 46 46 45 45 45 45 45 45 45 46 47 47 47 46 45 44 44 45 46 46 46 46 46 46 46 46 47 47 47 47 48 48 47 46 45 45
49 49 53 55 54 54 53 53 54 54 54 54 54 53 50 51 50 46 47 48 46 43 40 39 39 38 38 38 40 44 47 51 52 54 56 55 58 61 61 61 61 60 59 57 56 55 52 51 50 49 50 49 48 48 48 48 48 48 49 50 50 50 50 49 48 47 46 46 47 48 49 50 49 49 49 49 49 49 50 51 51 51 50 50 49 49
54 57 58 57 57 57 56 56 58 57 56 56 57 57 55 55 55 53 52 52 50 49 46 44 41 39 39 40 41 43 46 51 54 56 58 57 59 61 61 62 62 63 62 60 59 57 55 54 53 52 52 52 51 50 50 50 50 50 51 52 52 52 52 51 50 49 48 47 47 48 49 50 51 52 52 52 52 52 52 52 53 53 54 54 53 53
60 63 63 61 61 61 60 61 63 61 58 57 59 60 60 60 59 59 58 56 54 53 52 51 47 42 43 45 46 46 45 48 53 57 58 59 61 62 62 62 62 63 63 62 62 60 58 58 57 55 54 54 53 52 52 52 52 52 52 52 53 53 53 53 52 52 51 50 49 49 49 49 50 52 53 54 54 53 53 54 54 55 55 55 55 56
64 66 66 64 65 65 65 65 68 66 61 60 63 65 65 64 63 63 62 60 58 56 55 56 54 49 47 48 51 52 50 50 54 58 59 61 62 64 65 65 64 64 65 64 63 63 62 61 60 59 57 57 56 54 53 53 53 53 53 53 53 53 54 54 54 54 54 54 53 53 52 51 51 52 53 53 54 54 54 55 55 56 56 56 56 56
68 69 68 67 67 67 68 70 71 70 67 65 67 69 69 68 68 67 66 64 61 59 57 57 60 57 51 51 54 56 57 56 58 62 63 62 63 64 65 66 67 67 68 68 66 67 67 65 64 63 61 60 59 58 56 55 54 54 54 54 54 55 55 55 56 57 57 58 58 58 57 56 55 54 54 54 54 54 55 56 56 57 57 58 58 58
72 72 71 71 70 70 71 72 73 73 72 70 70 71 71 72 72 71 70 68 66 63 58 58 64 62 55 53 55 57 60 62 64 67 67 66 66 66 66 66 68 69 70 71 70 70 70 70 69 67 66 64 63 62 60 59 58 57 57 57 57 57 57 58 58 59 60 60 61 61 61 61 60 57 56 55 55 55 56 57 58 59 58 59 60 60
75 74 74 73 73 74 74 75 75 76 76 75 75 75 75 75 75 74 73 71 70 66 61 61 66 65 58 54 55 58 61 65 68 70 71 70 68 66 67 68 70 72 73 73 73 72 72 71 70 70 69 69 68 66 65 64 63 62 61 61 60 60 60 60 60 60 61 62 63 64 64 64 63 61 59 58 58 58 59 59 60 61 61 61 61 62
73 73 74 74 75 76 76 76 76 76 76 76 76 75 76 76 75 76 75 74 74 68 63 65 68 67 60 54 55 58 63 67 70 72 73 72 69 66 65 67 71 74 76 76 76 76 75 74 73 73 73 74 73 71 69 68 67 66 65 65 64 64 64 63 62 62 62 63 64 65 66 66 66 65 64 63 63 63 63 64 64 64 64 64 64 64
68 68 69 71 73 74 75 75 75 75 76 78 78 78 78 78 77 77 76 76 76 70 67 68 69 67 60 55 57 61 65 69 72 74 75 74 72 69 66 66 69 73 76 78 79 79 80 79 79 79 78 78 78 77 75 74 73 72 71 70 70 69 69 68 67 66 66 66 67 67 68 69 69 69 67 67 67 68 69 68 68 67 67 67 67 67
70 70 71 72 73 74 76 77 77 79 81 82 83 84 85 85 84 84 82 82 81 76 74 74 74 69 61 59 62 65 69 72 72 73 75 75 75 74 72 69 69 71 74 75 77 79 80 81 81 82 81 80 79 79 79 78 78 77 76 75 74 74 74 74 73 72 72 71 71 72 72 72 72 72 73 74 76 77 76 75 73 72 71 71 71 72
78 76 76 78 78 78 80 83 84 86 87 89 89 91 93 93 94 94 93 91 86 83 81 80 79 73 65 65 68 72 76 77 77 76 78 80 80 81 81 79 76 75 75 76 76 76 78 79 80 80 81 81 81 81 81 81 81 80 79 79 79 79 79 79 79 78 78 78 78 78 79 79 79 79 81 83 85 85 84 82 80 78 78 77 77 77
86 82 80 84 86 84 86 89 92 93 94 95 96 98 99 99 102 103 102 99 95 93 91 88 86 81 76 76 78 81 84 83 84 85 86 88 90 89 89 88 87 86 85 85 83 83 83 83 84 83 83 85 86 86 86 86 86 84 83 83 83 83 83 83 84 85 85 85 86 87 87 87 87 87 87 88 88 89 89 89 87 86 85 84 83 83
94 89 86 91 94 92 93 95 98 99 100 100 102 103 104 105 108 110 109 106 104 103 100 96 94 91 87 87 88 90 90 89 90 93 94 95 96 97 97 96 96 96 95 94 93 93 94 94 94 93 92 92 93 92 92 91 91 91 91 90 89 89 89 89 89 90 91 91 92 92 93 93 93 93 93 93 93 93 93 93 93 92 91 90 89 88
102 97 93 96 99 98 98 99 101 103 103 104 106 105 106 109 112 114 114 113 111 111 107 102 100 97 94 94 94 93 94 96 98 98 99 100 101 102 103 103 104 103 102 101 101 101 102 102 102 102 102 102 102 101 101 100 99 100 100 99 99 99 98 98 98 97 97 97 97 97 97 98 99 99 99 99 98 98 97 97 97 97 96 95 94 93
110 105 99 99 102 104 104 105 106 107 107 108 108 108 109 112 115 116 117 116 115 115 113 109 105 102 100 99 97 96 97 100 102 102 102 104 106 108 109 109 110 110 109 108 108 108 108 108 108 108 108 108 108 108 107 107 107 107 107 107 107 107 107 108 108 108 107 107 106 105 104 104 103 104 104 104 104 104 103 102 102 101 101 100 99 98
117 114 109 106 108 111 113 113 112 111 112 113 114 115 117 117 117 117 117 117 118 119 117 114 112 109 106 102 100 101 103 103 105 105 105 107 108 110 112 113 114 115 115 114 114 114 114 114 114 113 112 112 112 112 112 112 112 112 112 112 112 112 113 115 116 116 116 116 116 115 115 114 112 111 110 109 109 109 109 108 107 107 106 105 104 103
119 119 116 113 113 116 118 117 115 116 118 120 121 122 122 121 119 118 119 120 121 122 122 121 120 117 111 106 105 107 107 107 107 108 109 110 112 113 114 116 117 118 119 119 119 118 118 118 117 117 116 116 116 115 116 116 116 116 116 116 116 117 118 120 121 122 123 123 124 123 123 122 121 120 118 117 116 115 114 113 112 112 111 110 109 108
120 122 122 120 119 119 120 120 121 122 123 124 124 124 124 123 122 122 122 122 123 124 126 127 126 124 119 114 113 112 111 111 111 111 113 114 116 118 119 119 119 120 121 122 122 121 120 119 119 119 119 119 119 119 119 120 120 121 121 121 121 121 123 124 125 127 128 129 129 129 128 128 127 126 125 124 123 122 120 119 118 117 116 115 114 113
124 127 128 128 126 124 124 125 127 127 127 126 126 126 125 124 125 126 126 126 126 127 129 130 131 129 127 124 121 120 119 118 118 118 118 119 120 121 121 121 121 121 121 121 121 121 121 121 120 120 120 120 121 121 122 124 125 125 126 125 125 125 126 127 128 130 131 132 133 133 132 131 131 130 129 128 128 127 126 125 124 123 122 121 120 119
129 131 133 133 132 130 129 130 130 131 130 130 129 127 126 125 126 128 129 128 129 130 130 132 133 133 132 130 129 128 127 126 125 124 123 123 122 122 122 122 122 122 122 121 121 121 121 120 120 120 121 121 123 124 125 127 129 129 129 129 129 128 128 128 128 130 131 132 134 135 135 134 133 133 132 131 131 130 130 129 128 127 126 125 125 124
132 134 135 136 135 134 133 133 133 133 133 133 132 130 128 127 128 129 130 130 131 132 132 133 134 135 134 132 133 134 133 132 130 128 126 124 122 121 121 121 121 121 121 121 121 121 121 121 121 121 122 123 124 126 127 129 131 132 132 131 131 130 129 128 128 128 129 129 131 133 134 135 135 135 134 133 133 132 132 132 131 131 130 129 129 128
134 136 137 138 138 138 137 136 135 135 135 135 134 133 130 129 130 131 132 133 134 135 134 134 136 135 134 134 135 135 135 134 132 129 126 123 121 119 119 118 118 118 119 119 120 120 121 121 122 122 124 125 126 128 130 131 132 132 132 131 130 129 128 127 126 126 126 126 127 128 130 132 134 135 135 135 134 134 133 133 133 133 133 133 132 132
136 137 138 139 139 140 139 138 137 137 137 136 135 134 132 131 131 132 133 135 136 136 135 136 136 135 134 134 134 133 133 131 129 127 125 123 120 118 117 116 115 115 116 116 117 118 119 120 121 122 124 125 127 129 130 132 132 132 131 130 129 127 126 124 124 124 124 123 124 124 126 127 129 131 133 133 133 133 133 134 134 134 135 136 135 135
136 137 138 137 137 139 138 138 138 137 137 136 135 134 133 132 132 132 133 133 133 134 134 133 132 132 132 130 129 129 129 127 125 124 123 122 120 119 117 115 114 113 113 114 114 115 116 117 118 119 121 122 124 126 127 128 128 128 128 126 125 124 123 122 121 121 121 120 120 121 121 122 124 126 128 129 130 131 132 132 133 133 134 135 136 136
136 136 136 135 135 135 134 134 134 134 134 134 132 131 129 128 128 127 127 127 128 130 130 127 126 127 127 125 124 124 124 124 122 121 121 120 119 118 116 115 113 112 111 111 111 112 112 113 114 114 115 116 118 119 119 120 120 121 121 121 120 120 119 119 119 119 119 119 119 118 119 119 120 121 122 124 125 126 128 129 130 131 132 132 133 134
132 132 130 130 130 129 128 128 128 129 130 129 127 125 123 122 120 119 120 121 123 127 127 124 122 123 122 120 120 121 121 120 120 119 118 117 116 115 114 114 112 111 110 110 109 109 109 109 109 109 110 111 112 113 113 114 114 114 115 115 116 117 117 117 117 118 118 119 119 119 118 118 118 119 119 120 121 122 123 125 126 127 128 129 130 131
128 127 126 126 127 126 125 124 125 126 126 124 122 120 117 114 113 114 116 119 122 125 125 122 121 119 116 116 117 118 118 118 117 116 115 115 114 113 113 112 111 110 110 109 109 109 108 107 107 107 107 107 108 109 110 110 111 111 111 112 112 113 114 115 116 117 117 118 119 120 120 120 119 118 118 118 119 119 120 121 122 124 125 126 127 128
126 125 124 124 125 124 121 121 123 125 124 121 117 114 111 110 112 114 116 118 120 122 121 121 120 118 114 114 116 117 117 116 115 114 114 113 113 112 112 111 110 109 109 108 108 108 107 107 106 106 106 107 107 108 108 109 109 109 110 110 110 110 111 112 113 115 116 116 117 118 120 121 121 120 120 119 119 118 118 118 119 121 122 123 124 125
124 124 122 123 124 122 118 118 121 122 122 118 112 108 109 112 115 116 117 117 118 119 119 120 119 117 116 116 117 116 116 114 113 113 112 112 112 112 112 111 110 109 108 107 107 107 107 106 106 105 105 105 106 107 107 108 108 108 108 108 108 108 109 109 110 111 113 114 115 116 117 119 121 121 121 121 120 119 118 118 118 119 120 120 121 121
123 123 122 122 123 120 116 117 120 121 119 112 105 107 112 115 116 116 116 116 116 117 118 118 117 117 117 117 116 115 114 113 112 111 111 111 111 110 110 110 109 109 107 106 106 106 107 107 106 105 105 105 105 105 106 106 106 106 106 107 107 107 106 107 107 108 109 110 112 113 114 116 118 119 120 121 121 121 120 119 118 118 118 119 119 119
121 122 122 122 123 120 116 117 120 121 115 106 104 110 113 114 115 116 116 115 114 114 115 115 115 115 115 115 114 113 112 111 110 109 108 108 108 108 107 107 107 107 107 106 105 104 104 105 105 105 105 105 105 105 105 106 106 105 105 105 105 105 105 105 105 105 106 107 108 110 111 112 114 116 118 119 121 122 122 121 120 118 117 117 117 118
120 121 122 123 123 122 119 118 121 119 111 106 107 109 109 112 115 115 113 110 109 110 111 111 112 113 113 112 111 110 109 108 106 104 104 105 105 104 103 103 104 104 105 105 105 104 104 104 104 104 104 104 105 105 105 105 105 104 104 105 105 105 105 105 105 105 106 105 106 107 108 110 111 113 114 116 118 120 121 122 122 121 120 118 116 116
120 122 123 123 123 123 120 119 118 114 108 105 105 105 106 109 111 110 107 104 103 105 106 108 109 110 109 109 109 108 107 105 102 100 101 104 104 103 101 101 102 103 103 104 104 104 104 104 104 103 103 103 103 104 105 105 105 104 104 105 106 106 106 106 105 106 106 106 105 106 107 108 109 111 112 114 115 117 119 120 122 123 123 121 119 117
120 121 121 121 120 119 118 116 113 109 104 100 100 101 103 105 104 103 102 99 98 100 103 105 107 107 107 107 107 106 105 102 100 98 100 103 104 103 101 101 102 103 104 104 104 104 104 104 103 102 102 102 103 104 105 105 104 104 103 104 105 106 106 106 106 106 106 106 105 106 107 107 108 109 110 112 114 115 116 118 119 121 122 123 122 121
117 118 118 118 116 114 114 113 108 104 101 97 97 98 100 101 100 100 101 98 95 96 100 103 104 105 105 105 105 104 103 101 99 97 99 103 105 104 103 103 103 104 105 105 105 104 104 103 102 101 101 101 102 103 104 104 103 102 102 103 105 106 106 106 107 107 106 105 104 105 107 108 109 109 110 111 112 113 114 116 117 119 120 122 122 122
113 113 114 114 112 110 111 110 106 102 101 99 98 98 99 99 100 102 103 100 95 96 100 102 101 101 103 103 102 102 102 100 98 97 99 102 104 105 105 104 104 105 105 105 105 105 105 104 102 101 101 101 102 102 103 102 101 100 100 101 103 104 104 105 106 105 104 103 104 104 105 107 108 109 110 111 112 112 113 114 115 117 118 119 120 121
108 108 109 109 108 107 108 108 105 103 102 101 101 100 99 100 101 103 104 101 97 97 98 98 98 99 99 99 99 99 99 98 98 97 98 99 102 104 105 105 105 105 105 105 105 104 103 102 101 100 100 100 101 101 101 100 99 98 98 99 100 101 102 103 103 102 102 102 103 104 104 106 106 107 109 110 111 112 113 113 114 115 116 117 118 119
104 105 105 104 104 104 106 106 104 102 100 100 102 102 101 101 102 103 102 101 99 96 94 94 96 96 95 95 96 96 96 97 97 96 96 97 99 101 103 104 104 104 103 103 103 102 101 99 98 98 98 99 100 100 99 98 96 95 96 97 97 98 100 100 99 99 99 100 100 102 103 105 106 106 107 108 108 109 110 112 113 114 115 116 117 117
103 103 102 100 101 102 103 103 102 99 96 98 101 102 101 102 101 100 99 98 96 93 91 92 93 93 93 93 93 93 93 93 94 94 93 94 95 97 99 101 102 101 101 100 100 99 98 96 95 95 95 96 98 98 97 95 93 92 93 94 94 95 96 95 94 95 96 96 97 99 100 102 103 104 104 105 106 106 106 107 109 111 113 114 115 116
102 101 98 96 98 99 97 96 98 97 95 96 99 100 100 100 99 97 96 95 92 90 90 90 90 90 91 91 90 91 90 90 90 91 90 91 92 94 96 97 98 98 97 96 96 95 94 92 91 91 91 93 95 96 95 94 92 91 92 92 93 93 92 91 92 92 93 93 95 96 97 99 100 100 101 102 103 103 103 103 105 107 109 111 113 114
99 98 96 93 95 96 93 92 95 97 94 94 98 99 98 97 95 95 93 90 89 88 89 88 87 87 88 88 88 88 87 87 88 88 88 88 89 91 92 93 93 93 92 92 92 92 91 90 89 88 89 91 93 95 95 94 92 91 91 92 92 91 91 90 91 91 91 92 93 94 95 96 97 97 98 98 99 100 99 100 101 103 104 106 109 110
96 96 94 91 92 93 90 89 95 97 92 91 94 95 95 94 92 91 88 85 84 85 87 87 86 85 86 86 85 85 85 85 86 86 86 86 87 88 89 89 89 90 90 90 90 90 90 90 89 88 88 89 92 94 94 94 93 91 91 91 91 91 90 89 90 90 90 91 92 93 94 95 95 95 95 96 96 97 96 97 98 100 101 103 104 105
94 94 91 88 89 90 87 88 94 95 89 86 88 89 91 91 89 87 85 83 82 82 84 85 85 84 84 84 84 83 84 84 84 84 85 85 86 86 87 87 87 88 88 89 89 89 89 89 88 88 87 88 90 93 94 94 94 92 90 90 90 89 88 88 88 88 88 89 90 91 92 93 93 93 94 95 95 95 94 94 96 97 98 100 101 102
92 91 87 85 87 88 85 87 93 93 86 83 84 85 87 88 86 85 85 83 81 81 81 82 82 82 82 82 82 82 82 83 83 83 84 85 85 85 85 86 86 87 88 88 88 88 88 88 87 87 87 87 89 92 93 93 93 92 90 88 88 87 86 85 85 85 85 86 88 89 89 90 90 90 91 93 93 93 93 93 93 94 95 97 98 99
91 88 85 85 86 85 84 85 91 90 84 80 82 84 85 85 85 85 85 83 81 80 79 80 80 81 81 81 81 82 82 82 83 83 83 84 84 84 85 85 86 87 88 88 88 88 87 87 87 87 87 88 89 89 90 90 90 90 89 87 85 83 81 80 81 82 82 83 85 85 85 86 86 86 87 89 91 91 91 91 92 92 92 93 95 96
90 85 83 85 83 81 83 86 89 88 81 78 81 84 84 83 83 84 84 83 81 80 80 80 80 80 80 81 81 81 82 82 82 82 83 83 84 84 85 85 86 87 87 87 87 87 87 86 86 86 86 86 85 85 85 86 87 87 86 85 83 81 79 78 79 79 80 80 81 81 81 82 82 83 84 86 87 88 88 89 90 90 89 89 91 93
88 82 82 84 80 78 82 86 89 87 80 77 81 84 83 82 82 82 82 81 81 81 81 81 81 81 81 82 82 82 82 82 82 82 82 83 83 84 84 85 85 86 86 85 85 84 84 84 83 83 83 82 81 81 81 82 83 84 83 82 81 80 79 78 78 78 78 78 78 78 78 79 79 80 81 82 83 84 85 85 87 87 87 87 89 90
86 81 81 82 79 77 80 84 86 85 81 79 81 82 82 81 81 81 81 80 80 81 82 83 83 83 84 83 83 82 82 81 82 82 82 82 83 83 84 83 83 83 82 81 80 80 80 80 81 80 80 79 78 78 79 79 80 80 79 79 79 78 78 77 77 76 77 77 77 76 76 77 77 78 79 79 80 80 81 82 83 83 83 84 85 87
Wind_Direction
281 283 285 282 281 283 285 284 283 281 279 276 275 274 273 272 272 271 272 275 277 279 281 283 285 285 281 276 274 274 276 278 277 275 274 273 273 272 271 271 271 272 274 276 277 277 278 277 277 277 278 279 280 280 280 278 277 275 273 273 274 276 277 276 276 275 275 274 273 273 273 273 273 273 272 272 271 271 270 270 269 268 268 267 268 268
279 282 282 278 279 282 282 282 282 281 280 278 276 275 274 273 270 269 272 273 275 277 277 278 281 282 279 276 276 275 275 274 274 274 273 272 272 271 271 271 271 273 273 274 274 273 272 273 274 275 276 278 279 280 280 279 278 277 275 275 276 278 277 276 276 275 274 273 273 272 272 271 271 271 272 272 272 272 272 271 270 268 268 268 268 267
284 283 279 277 278 279 279 279 280 280 281 280 279 276 274 273 270 269 271 272 272 274 275 276 278 277 276 277 276 275 275 273 273 273 273 272 272 271 271 271 272 272 272 272 271 270 271 272 273 274 275 276 276 277 278 278 278 278 277 278 279 279 278 277 276 275 274 272 271 270 270 269 269 269 269 270 270 271 271 271 270 270 270 269 269 268
287 285 281 281 281 280 279 279 279 280 281 282 282 280 277 274 272 271 271 272 273 273 273 274 275 275 274 275 274 272 272 272 273 274 274 273 272 272 272 273 273 272 272 272 271 270 271 272 273 274 275 275 275 275 276 276 277 277 278 279 279 279 279 278 277 275 274 272 270 268 268 268 268 268 268 268 268 268 269 269 270 271 271 270 270 269
287 284 282 282 283 283 282 281 281 281 281 282 282 281 279 277 276 274 272 272 274 276 276 274 272 272 273 272 271 269 271 273 274 275 275 275 274 274 273 273 273 273 273 272 272 272 272 273 273 274 274 275 275 275 275 275 275 275 276 277 278 279 279 278 278 276 274 272 270 268 267 267 268 268 269 268 268 268 268 269 270 270 269 269 269 269
285 283 281 281 282 283 282 282 281 280 281 282 282 281 280 278 278 277 275 273 273 274 276 275 272 270 272 272 270 268 268 271 274 275 275 275 276 276 275 274 273 273 273 273 273 273 273 273 274 274 273 274 275 275 275 275 274 274 275 275 275 276 277 277 277 277 275 273 270 269 267 267 267 267 268 268 268 269 269 269 269 269 269 268 268 268
283 281 281 281 281 282 283 282 281 280 281 281 281 281 279 279 278 278 277 276 275 274 274 276 274 270 269 272 273 273 271 269 271 272 271 271 273 275 275 274 274 274 274 274 274 274 274 273 273 272 272 273 274 274 273 273 273 273 273 273 273 273 274 274 275 275 275 274 273 272 270 269 268 267 266 266 267 268 269 269 269 269 269 268 268 267
279 279 280 280 280 282 282 281 281 282 282 281 280 280 280 279 278 277 277 275 275 273 272 274 274 270 267 269 272 273 273 271 270 270 268 267 267 271 273 275 276 276 276 276 275 275 275 274 273 272 272 272 272 271 271 271 272 272 272 272 272 272 272 272 272 273 274 274 274 274 274 272 270 268 267 267 267 267 267 267 268 269 270 270 269 268
276 277 278 279 280 281 281 281 281 282 282 280 279 279 279 279 279 278 277 276 274 272 271 271 271 269 267 267 269 271 272 271 270 270 270 268 265 264 267 270 272 274 275 276 276 275 275 275 275 274 273 272 271 271 271 271 271 271 271 271 271 271 270 270 270 270 271 272 272 273 273 273 273 271 270 270 270 269 268 268 267 267 268 269 269 269
275 275 276 277 278 279 279 279 280 280 280 280 279 278 278 278 278 278 278 278 276 273 271 270 269 268 266 265 267 269 270 270 270 269 268 268 267 265 265 265 265 267 270 272 273 273 273 274 275 275 275 274 273 272 271 271 270 270 270 269 269 269 269 269 268 268 268 269 270 270 271 272 272 271 271 271 271 272 271 271 269 269 268 268 268 268
277 276 276 277 277 277 278 279 280 281 282 282 281 281 280 280 280 279 279 278 277 275 274 271 269 268 267 266 267 268 268 269 270 270 269 269 268 266 266 266 264 263 263 265 267 269 271 271 272 273 274 276 276 275 273 272 271 270 269 268 268 267 267 267 267 267 267 267 268 269 269 269 269 270 270 270 270 271 271 271 270 270 269 269 268 267
278 278 277 278 278 278 279 281 283 285 286 287 288 287 287 286 285 284 283 282 280 278 277 275 273 272 272 272 270 269 268 267 267 269 270 271 270 268 267 266 266 265 264 264 264 265 267 269 271 271 272 273 275 276 276 275 274 273 271 270 269 269 268 267 266 265 265 266 266 267 267 267 268 268 268 269 270 271 272 271 270 269 268 268 268 268
281 281 281 282 284 284 285 285 286 287 289 290 291 292 292 292 291 289 288 286 284 284 282 280 279 277 277 278 276 274 273 272 271 271 272 273 274 275 273 269 266 265 266 266 266 266 266 268 270 272 273 273 273 274 275 275 276 276 275 274 273 272 271 270 268 267 266 266 266 266 266 267 267 268 269 270 272 273 273 273 271 269 268 268 268 267
285 285 286 287 288 289 288 288 288 289 290 291 292 292 292 294 294 292 289 287 287 287 285 283 283 283 283 282 280 278 277 278 278 278 278 278 278 279 280 278 275 272 270 269 268 267 267 267 267 269 270 272 273 273 273 273 273 273 273 274 274 274 274 273 272 271 269 268 268 268 268 269 269 269 270 271 273 274 274 273 272 271 270 269 268 267
287 287 289 289 288 288 288 288 288 289 290 290 291 292 293 294 293 291 290 290 290 289 286 286 286 286 286 284 282 280 279 280 282 283 282 281 282 282 282 283 283 282 281 279 277 276 274 273 272 269 267 268 270 271 272 272 272 272 271 271 271 271 272 273 273 273 273 272 271 271 271 270 270 269 268 269 269 271 272 272 272 271 270 270 269 268
289 289 289 289 288 288 288 289 290 290 290 291 292 293 293 292 290 291 293 293 292 291 289 289 288 287 287 285 284 282 282 283 284 284 283 283 284 284 284 285 285 285 284 284 283 282 281 280 279 277 275 273 273 273 273 273 273 273 273 273 271 270 270 270 270 271 272 272 272 272 272 272 271 270 269 269 268 268 269 270 270 270 270 270 269 269
289 289 289 289 289 289 288 288 289 289 289 291 291 290 289 289 290 293 293 293 292 291 290 289 288 288 286 285 284 283 283 284 284 284 284 284 284 284 284 285 285 285 284 284 283 282 282 281 280 279 279 278 277 277 276 276 276 276 276 275 275 274 273 272 271 271 270 270 270 270 270 270 270 270 270 270 270 269 268 269 269 269 269 269 269 269
290 289 289 289 288 288 288 287 288 289 289 288 287 286 286 288 291 292 291 291 290 289 288 288 287 287 285 285 285 282 280 282 283 284 284 284 284 284 284 284 284 283 283 282 282 281 281 280 279 279 278 277 277 277 277 277 277 277 277 277 276 276 276 275 274 274 273 272 271 270 269 268 268 267 267 268 268 269 269 268 268 268 268 268 268 268
289 289 289 289 288 287 288 288 288 289 288 286 286 287 288 289 290 289 288 288 287 287 287 287 286 286 286 286 284 281 280 281 282 282 281 281 281 281 282 282 281 281 281 281 280 280 280 280 279 278 277 277 276 276 276 276 276 277 277 277 276 276 276 276 275 275 274 274 273 273 272 271 269 268 266 265 265 265 266 266 266 266 266 266 266 266
287 287 287 288 287 287 288 288 288 287 286 286 287 288 289 289 288 287 286 286 286 286 287 287 286 286 285 283 281 281 281 281 279 278 278 278 278 278 278 278 278 278 279 279 279 279 278 278 278 278 277 276 276 275 275 275 275 275 275 275 275 275 274 274 274 274 273 273 273 272 272 271 271 270 269 268 266 265 265 264 264 264 264 264 264 264
285 285 286 286 286 286 286 286 286 285 286 287 287 287 288 288 287 286 285 286 286 286 286 287 287 286 285 284 283 283 281 278 276 275 274 275 275 276 276 276 275 275 275 276 276 276 276 276 276 275 275 275 274 274 274 274 274 274 274 273 273 272 272 271 271 271 271 271 271 271 270 270 270 269 269 269 268 267 266 265 265 264 264 264 263 263
284 284 285 285 285 285 285 285 285 285 286 286 286 287 287 286 285 285 285 286 286 286 286 286 286 286 286 286 285 284 281 278 276 275 274 274 274 274 273 273 273 272 272 273 273 274 274 274 273 273 273 272 272 272 273 273 273 274 273 273 272 271 270 270 269 269 269 269 270 269 269 269 268 268 268 267 267 267 266 266 265 265 264 264 264 263
282 282 283 284 284 284 284 284 285 285 286 286 285 285 285 284 284 284 285 286 285 285 285 285 285 286 286 286 286 284 281 279 278 276 275 274 273 273 272 272 271 271 271 271 271 270 270 270 270 270 270 270 270 270 270 271 272 273 273 273 272 271 270 269 268 268 267 267 268 268 268 268 267 267 266 266 266 266 265 265 265 265 265 264 264 264
280 281 281 282 282 283 283 284 284 284 285 284 284 283 283 282 283 283 284 285 284 283 283 284 284 285 285 284 283 282 281 281 280 278 277 275 274 273 272 271 271 271 270 270 269 269 268 267 267 266 266 267 267 268 268 269 270 271 272 272 272 271 271 269 268 267 266 265 265 265 266 266 266 265 265 265 265 265 265 265 265 265 264 264 264 264
279 280 280 281 282 282 282 283 283 283 283 283 283 282 282 282 282 283 283 283 283 283 284 283 282 283 282 281 280 280 280 280 279 279 278 277 276 275 274 273 272 271 270 269 268 268 267 266 266 265 265 265 265 266 266 267 268 269 270 271 271 271 270 269 268 267 266 265 264 263 263 264 264 264 264 264 263 263 263 264 264 264 264 264 264 264
280 280 281 281 282 282 282 283 283 283 282 282 282 282 282 282 282 282 282 282 283 283 283 281 281 281 280 279 279 279 279 279 279 279 278 278 277 276 275 273 272 271 270 269 269 268 267 267 266 266 265 265 265 266 266 266 267 268 269 269 270 269 269 268 268 267 266 265 264 263 262 262 262 263 263 263 263 262 262 262 262 262 263 263 263 263
280 280 280 280 281 281 282 282 282 282 281 281 281 281 281 281 281 281 281 282 282 281 279 279 279 279 278 278 278 278 278 278 278 278 278 278 277 277 275 274 273 272 271 270 270 269 268 268 267 266 266 266 266 266 266 266 267 267 268 268 268 268 268 268 267 267 266 265 265 264 263 262 261 261 261 261 262 262 262 262 261 261 261 262 262 262
280 280 280 280 280 280 280 281 280 280 280 280 279 280 280 280 280 281 281 281 280 279 278 278 278 277 277 278 278 278 278 278 278 278 277 277 277 276 276 275 274 273 272 271 270 269 269 268 268 267 267 267 266 266 266 266 266 266 266 266 267 267 267 267 267 267 266 266 265 265 264 263 262 261 260 260 260 260 261 261 261 261 261 261 261 261
280 280 280 280 280 280 280 280 280 280 280 279 280 280 280 280 281 281 281 280 279 278 278 278 277 277 278 279 279 278 278 278 278 277 277 277 276 276 276 275 275 274 273 272 271 271 270 269 268 268 267 267 267 266 266 266 265 265 264 264 264 265 265 265 265 265 266 266 266 265 265 264 263 262 261 261 260 259 259 259 260 260 260 260 260 260
280 280 280 280 280 280 280 280 280 280 280 280 280 281 281 282 283 282 281 280 279 278 279 279 279 278 279 279 279 278 278 277 277 277 277 277 276 276 275 275 275 274 274 273 273 272 271 271 270 269 269 268 267 267 266 266 265 264 264 263 263 262 262 263 263 264 264 264 265 265 265 265 264 263 262 262 261 260 260 259 259 260 260 260 260 260
280 280 280 280 280 280 280 280 280 280 280 280 281 282 283 284 283 281 279 279 279 279 280 280 280 280 280 279 278 277 277 277 277 277 277 277 277 276 276 275 275 274 274 273 273 273 272 272 271 270 270 269 268 268 267 266 265 265 264 263 262 262 261 261 261 261 262 262 263 263 264 264 264 264 263 263 262 261 261 260 260 260 260 260 260 260
281 281 281 280 280 280 280 280 280 280 280 280 282 284 284 283 281 279 279 279 279 280 280 280 280 280 280 279 278 277 277 277 277 277 277 277 276 276 276 276 276 275 275 275 274 274 274 273 272 271 270 269 268 268 267 266 266 265 265 264 263 262 261 261 260 260 260 260 261 261 262 263 263 264 264 264 263 263 261 261 260 260 260 260 259 259
280 280 280 280 280 280 281 280 280 279 279 281 283 284 282 280 279 280 280 280 280 280 280 280 280 280 279 278 277 277 277 276 276 276 276 276 276 276 277 277 277 277 276 275 275 274 274 273 273 272 271 270 269 268 268 267 267 266 266 265 265 264 263 262 261 260 259 259 259 260 260 260 261 262 263 263 264 264 263 262 261 260 260 260 260 259
280 280 281 281 281 281 281 280 280 279 280 283 283 281 280 280 280 280 279 279 280 280 280 279 279 278 277 277 276 276 276 276 275 276 276 276 276 276 276 277 277 277 277 276 275 274 273 272 272 271 271 271 270 270 269 268 268 267 267 266 266 265 265 264 262 261 260 259 259 259 259 259 259 260 261 261 262 262 263 263 263 262 261 260 260 259
281 281 281 281 281 281 281 280 280 281 283 284 282 281 281 280 279 278 278 279 279 279 278 278 277 277 276 276 276 275 275 275 275 276 276 276 276 275 275 275 275 275 275 275 274 273 272 272 271 271 270 270 270 270 270 269 269 268 268 268 267 266 266 265 264 263 262 261 259 258 258 258 258 258 259 259 260 260 261 261 262 262 262 262 261 260
281 281 280 280 281 281 281 281 281 282 283 283 282 282 280 279 278 278 279 278 277 277 276 276 276 275 275 275 275 275 275 276 277 277 277 277 276 276 275 275 275 274 274 273 273 273 272 271 271 270 270 270 270 270 270 269 269 269 268 268 268 267 266 265 265 264 263 262 261 260 259 258 257 257 257 257 258 258 259 260 260 261 261 262 261 261
280 280 280 281 281 281 282 282 282 283 283 282 282 281 280 278 279 278 277 276 275 275 275 275 275 275 275 275 275 276 277 277 277 278 278 278 277 277 276 276 275 275 274 274 273 273 272 272 272 271 271 271 270 270 270 269 269 269 269 268 268 267 267 266 265 264 263 263 262 262 261 260 258 257 257 257 257 257 257 258 258 259 260 260 261 261
281 281 281 282 282 283 284 283 283 283 283 283 282 281 280 280 279 278 276 274 273 273 273 273 273 274 275 275 276 277 277 278 278 278 278 278 278 277 277 276 276 275 275 275 275 274 274 274 273 273 273 272 272 271 271 270 270 269 269 269 269 268 268 268 267 266 265 264 263 262 262 261 260 259 258 257 257 256 256 256 257 257 258 259 260 260
281 282 282 282 283 284 284 284 284 284 284 283 282 281 281 280 279 277 276 274 274 273 272 272 273 274 274 275 276 276 277 278 278 277 276 276 277 277 276 276 276 275 275 275 275 275 275 275 275 274 274 274 273 273 272 272 272 271 271 270 270 269 269 268 268 267 267 266 265 264 262 261 260 260 259 258 258 257 257 256 256 256 257 257 258 259
280 280 281 281 282 283 284 284 284 283 283 283 283 282 280 279 278 277 277 276 275 274 274 275 275 275 276 276 276 277 277 276 276 275 275 275 275 276 276 276 276 275 275 275 275 275 275 276 276 276 276 276 275 275 274 274 273 272 272 271 270 270 269 269 268 268 268 267 266 265 264 263 261 260 259 258 258 257 257 257 256 256 256 256 256 257
279 279 279 280 282 282 282 282 282 282 283 283 282 281 279 278 277 276 277 277 277 277 277 278 278 277 277 277 277 277 276 276 276 275 275 275 275 275 276 276 276 276 276 276 276 276 276 277 277 278 278 277 277 276 276 275 274 273 273 272 271 270 270 269 269 269 268 267 266 266 265 264 263 262 261 260 258 257 257 257 257 256 256 256 256 256
279 279 279 280 280 280 280 280 281 282 282 281 280 280 279 278 277 277 278 278 279 280 280 279 279 278 278 277 276 276 276 276 276 276 275 275 275 275 275 275 276 276 276 277 277 277 278 278 278 278 278 278 278 277 277 276 275 274 273 273 272 271 270 270 270 269 268 268 267 266 265 264 264 263 262 262 261 259 258 257 257 256 256 256 257 256
279 279 280 280 279 279 279 280 281 281 280 279 278 278 277 278 279 279 280 280 281 282 281 280 279 279 278 278 277 276 276 276 276 276 276 276 275 275 275 275 276 276 277 278 278 278 279 279 278 278 278 278 278 278 277 276 276 275 274 273 273 272 271 271 270 269 268 268 267 266 265 264 264 263 263 262 262 261 260 259 258 257 256 256 256 256
280 280 281 280 280 280 280 281 280 279 278 277 277 277 278 279 279 280 280 281 282 282 281 280 279 279 278 278 278 278 278 278 277 277 276 276 276 276 276 276 277 278 278 279 279 279 279 279 278 278 278 278 277 277 277 277 276 275 275 274 273 273 272 271 270 270 269 268 268 267 267 266 265 264 264 263 263 262 261 261 260 259 258 257 256 256
281 282 282 281 281 281 281 280 279 277 277 277 278 279 279 280 280 280 281 281 281 280 280 279 279 278 278 278 279 279 279 279 278 278 277 277 277 277 277 278 278 279 279 279 279 279 279 279 279 278 278 277 277 277 277 277 276 275 275 274 274 273 273 272 271 271 270 269 269 268 268 267 266 266 265 264 263 262 261 260 260 259 259 258 258 257
282 282 282 282 281 281 280 279 278 277 278 279 280 280 281 281 281 281 281 280 279 278 278 278 279 279 279 279 280 279 279 279 279 279 279 278 278 278 279 279 280 280 280 279 279 279 279 279 279 279 278 278 278 278 278 277 277 276 275 275 274 274 273 272 272 271 270 270 269 268 267 267 266 266 266 265 264 263 262 260 259 259 258 258 258 257
282 281 282 282 281 280 280 279 279 279 280 281 281 281 281 281 282 281 280 280 279 279 279 279 280 280 280 280 280 279 279 279 279 279 279 279 280 280 281 281 280 280 280 280 280 280 280 280 280 280 280 280 279 278 278 278 278 278 277 276 275 274 273 273 272 271 271 270 269 268 268 267 267 266 266 265 265 264 263 262 260 259 258 258 257 257
281 281 282 281 280 281 281 281 280 280 281 282 282 281 281 281 281 281 281 281 281 281 281 281 281 281 280 280 280 280 280 280 280 280 281 281 281 281 281 281 281 281 280 281 281 281 281 282 282 281 281 280 279 279 279 279 279 279 278 277 276 275 275 274 274 273 272 271 270 269 269 268 267 267 266 265 265 265 264 263 262 261 260 259 259 258
281 281 282 281 281 283 283 281 280 280 282 282 281 280 280 280 281 281 282 283 284 284 283 282 281 281 281 280 280 280 280 281 281 281 281 281 281 281 281 281 281 281 281 281 282 282 283 282 282 281 280 280 279 279 279 279 279 278 278 278 278 278 277 276 275 274 273 272 271 270 270 269 268 267 266 266 265 265 264 264 264 263 262 261 260 259
281 282 282 282 282 283 282 281 281 282 282 282 280 280 280 281 281 282 283 284 285 284 284 283 283 282 281 281 281 281 281 281 281 281 281 281 281 281 281 281 281 281 281 282 282 282 282 282 282 281 280 280 280 279 279 278 278 278 279 280 280 279 279 277 276 275 274 273 272 271 270 269 268 268 267 266 265 265 264 264 263 263 263 262 261 261
283 283 283 283 283 282 281 281 281 282 282 281 280 280 282 282 283 284 284 284 284 284 283 283 283 283 282 282 282 282 282 282 282 282 282 282 282 281 281 281 281 281 282 282 282 282 282 282 281 280 280 280 279 279 278 278 278 279 279 280 279 279 278 277 276 276 275 274 273 272 271 270 269 269 268 267 266 265 265 264 264 263 262 262 261 261
Height
10751 10754 10754 10746 10740 10743 10745 10744 10745 10746 10747 10747 10747 10747 10748 10748 10749 10745 10744 10744 10745 10749 10750 10744 10745 10746 10744 10742 10738 10735 10733 10729 10722 10720 10721 10718 10714 10709 10705 10703 10701 10702 10706 10710 10712 10712 10713 10714 10714 10716 10716 10716 10716 10716 10716 10715 10715 10715 10714 10713 10711 10711 10711 10710 10709 10709 10708 10707 10706 10706 10706 10705 10704 10704 10703 10702 10701 10701 10701 10700 10700 10700 10700 10701 10701 10702
10745 10749 10746 10736 10734 10737 10737 10736 10737 10739 10739 10740 10741 10741 10742 10742 10742 10741 10739 10739 10739 10743 10745 10741 10742 10742 10738 10736 10734 10731 10729 10723 10716 10714 10714 10712 10708 10702 10698 10697 10696 10697 10702 10705 10705 10705 10706 10707 10708 10709 10710 10710 10711 10710 10710 10710 10710 10709 10709 10708 10707 10706 10706 10705 10705 10704 10703 10702 10702 10701 10700 10699 10699 10698 10697 10696 10695 10695 10695 10694 10693 10693 10694 10695 10695 10696
10740 10742 10735 10728 10729 10730 10729 10729 10729 10730 10731 10732 10733 10734 10735 10734 10735 10736 10734 10733 10734 10736 10738 10737 10738 10738 10734 10732 10729 10726 10722 10715 10711 10709 10706 10705 10701 10694 10692 10693 10692 10692 10696 10698 10697 10697 10699 10701 10703 10703 10704 10704 10705 10705 10704 10704 10704 10704 10703 10703 10701 10701 10700 10699 10699 10698 10698 10697 10696 10696 10695 10693 10693 10692 10691 10690 10690 10689 10688 10687 10686 10687 10687 10688 10688 10689
10734 10732 10725 10722 10723 10722 10722 10721 10720 10721 10723 10724 10724 10726 10728 10725 10726 10730 10729 10726 10728 10729 10731 10732 10732 10732 10730 10729 10725 10720 10716 10709 10706 10703 10699 10698 10694 10688 10688 10689 10687 10687 10688 10690 10689 10690 10693 10695 10696 10697 10697 10697 10697 10698 10697 10697 10697 10697 10697 10696 10695 10694 10694 10693 10692 10692 10691 10691 10690 10689 10688 10687 10687 10686 10685 10684 10684 10683 10682 10681 10681 10681 10681 10681 10682 10681
10725 10720 10717 10716 10715 10714 10715 10714 10711 10712 10715 10715 10715 10716 10718 10717 10717 10721 10721 10721 10722 10722 10724 10725 10727 10727 10725 10723 10719 10715 10711 10705 10700 10696 10692 10690 10686 10683 10684 10684 10682 10680 10681 10682 10682 10684 10685 10686 10688 10688 10688 10689 10689 10689 10690 10690 10690 10689 10689 10689 10688 10687 10687 10686 10685 10684 10684 10683 10682 10682 10681 10680 10680 10679 10678 10677 10676 10677 10677 10676 10676 10675 10674 10675 10675 10674
10714 10708 10707 10709 10708 10706 10707 10705 10700 10701 10707 10708 10705 10705 10706 10707 10708 10710 10711 10714 10716 10717 10717 10716 10718 10722 10719 10716 10713 10708 10707 10702 10695 10689 10685 10683 10680 10678 10678 10678 10677 10675 10674 10675 10676 10677 10678 10678 10678 10679 10679 10680 10680 10681 10681 10682 10682 10682 10682 10681 10681 10680 10680 10679 10678 10677 10676 10676 10675 10674 10674 10673 10673 10672 10670 10670 10669 10670 10670 10669 10669 10668 10668 10668 10668 10667
10705 10698 10698 10701 10700 10698 10698 10696 10689 10690 10698 10701 10697 10693 10694 10697 10698 10700 10701 10703 10707 10710 10710 10707 10707 10713 10714 10710 10706 10701 10699 10696 10688 10681 10678 10676 10674 10672 10671 10671 10672 10670 10668 10669 10669 10669 10669 10670 10670 10670 10671 10671 10672 10672 10672 10673 10673 10673 10674 10674 10673 10672 10672 10671 10670 10669 10668 10668 10667 10666 10666 10666 10665 10664 10663 10663 10663 10662 10661 10661 10661 10660 10660 10660 10660 10660
10694 10690 10690 10691 10691 10690 10689 10684 10680 10681 10686 10690 10687 10683 10684 10686 10687 10690 10691 10693 10697 10699 10703 10701 10696 10699 10706 10705 10700 10695 10691 10688 10681 10672 10669 10669 10669 10668 10667 10666 10666 10665 10662 10662 10662 10661 10659 10660 10661 10661 10662 10663 10663 10664 10664 10664 10663 10664 10665 10665 10665 10664 10664 10663 10662 10662 10661 10660 10659 10658 10658 10658 10657 10657 10656 10656 10655 10654 10653 10653 10652 10652 10652 10652 10652 10652
10684 10683 10683 10682 10682 10681 10678 10675 10673 10672 10673 10677 10677 10674 10674 10675 10675 10678 10680 10682 10685 10688 10695 10694 10683 10685 10697 10698 10693 10689 10682 10677 10671 10663 10660 10660 10660 10662 10664 10663 10661 10659 10656 10654 10654 10653 10650 10649 10649 10650 10652 10653 10654 10654 10655 10655 10655 10655 10655 10656 10656 10655 10655 10654 10654 10653 10653 10652 10651 10650 10650 10649 10649 10649 10649 10648 10647 10647 10646 10645 10644 10644 10644 10644 10644 10644
10675 10677 10676 10675 10674 10671 10668 10667 10665 10663 10662 10664 10664 10664 10664 10664 10666 10667 10668 10670 10671 10677 10685 10682 10672 10674 10685 10690 10686 10681 10673 10665 10659 10653 10650 10651 10652 10656 10659 10659 10657 10653 10650 10647 10645 10645 10643 10641 10640 10640 10640 10641 10643 10645 10646 10646 10645 10645 10646 10646 10646 10646 10645 10645 10645 10644 10644 10643 10642 10641 10641 10640 10640 10640 10640 10639 10638 10638 10638 10637 10636 10636 10636 10635 10635 10635
10667 10669 10668 10667 10664 10662 10660 10657 10656 10655 10653 10651 10652 10654 10653 10654 10656 10655 10657 10658 10657 10666 10673 10668 10662 10664 10674 10682 10678 10671 10663 10654 10647 10642 10639 10642 10645 10649 10652 10652 10649 10646 10642 10639 10637 10635 10635 10635 10634 10633 10632 10631 10630 10632 10633 10634 10635 10635 10635 10635 10635 10635 10635 10635 10635 10634 10634 10633 10632 10632 10631 10631 10630 10630 10630 10629 10628 10629 10628 10628 10628 10627 10627 10626 10626 10626
10660 10660 10660 10658 10655 10653 10650 10647 10647 10645 10642 10640 10640 10640 10640 10643 10645 10644 10646 10645 10644 10654 10659 10655 10653 10657 10667 10673 10667 10660 10652 10643 10639 10635 10631 10633 10637 10640 10642 10643 10639 10636 10634 10633 10632 10630 10627 10626 10625 10626 10626 10626 10623 10620 10620 10620 10620 10621 10622 10623 10624 10624 10624 10624 10624 10624 10623 10623 10623 10622 10621 10621 10621 10620 10620 10619 10618 10618 10618 10618 10618 10618 10617 10617 10616 10616
10652 10652 10650 10648 10646 10644 10638 10636 10636 10633 10631 10629 10629 10628 10626 10628 10630 10630 10633 10631 10632 10641 10644 10643 10642 10649 10661 10662 10652 10647 10639 10632 10631 10630 10626 10625 10627 10628 10629 10630 10629 10627 10626 10626 10625 10624 10623 10621 10619 10617 10616 10616 10616 10614 10611 10610 10608 10607 10607 10607 10608 10609 10610 10611 10612 10612 10612 10612 10611 10611 10611 10610 10610 10610 10610 10609 10608 10608 10608 10608 10608 10607 10607 10606 10606 10606
10641 10644 10642 10636 10634 10634 10628 10624 10623 10622 10622 10620 10619 10616 10613 10615 10614 10611 10614 10616 10622 10628 10628 10629 10631 10639 10652 10649 10640 10632 10623 10621 10624 10623 10619 10614 10613 10613 10613 10615 10617 10618 10617 10616 10616 10616 10615 10614 10612 10610 10608 10605 10605 10603 10602 10601 10599 10598 10596 10594 10593 10593 10593 10594 10595 10597 10598 10599 10600 10599 10599 10599 10599 10599 10599 10598 10597 10597 10596 10596 10596 10596 10596 10596 10595 10595
10626 10634 10638 10626 10620 10624 10619 10613 10610 10610 10611 10610 10610 10605 10602 10604 10595 10588 10593 10601 10608 10611 10611 10616 10619 10627 10637 10633 10627 10618 10609 10612 10615 10613 10608 10602 10599 10599 10599 10601 10602 10603 10604 10603 10604 10604 10602 10601 10599 10598 10597 10594 10593 10591 10590 10589 10587 10586 10586 10585 10583 10582 10581 10580 10580 10580 10581 10582 10584 10585 10585 10586 10586 10586 10586 10586 10586 10585 10584 10584 10584 10583 10583 10583 10583 10583
10610 10621 10630 10617 10608 10611 10607 10601 10598 10595 10596 10597 10598 10593 10590 10588 10577 10571 10577 10583 10587 10587 10592 10602 10604 10611 10619 10614 10610 10602 10596 10600 10601 10598 10595 10589 10588 10586 10585 10586 10586 10587 10589 10589 10589 10588 10587 10586 10584 10583 10582 10579 10578 10577 10577 10576 10575 10573 10572 10572 10571 10570 10571 10571 10570 10568 10567 10567 10568 10568 10569 10569 10570 10570 10570 10571 10571 10572 10572 10571 10571 10570 10570 10570 10570 10570
10594 10605 10617 10608 10598 10597 10595 10591 10586 10583 10583 10583 10582 10580 10576 10570 10565 10563 10562 10563 10565 10562 10570 10583 10587 10595 10600 10596 10595 10589 10583 10585 10584 10582 10581 10577 10575 10572 10570 10572 10571 10571 10573 10573 10573 10571 10571 10571 10569 10568 10567 10565 10563 10561 10561 10560 10560 10559 10558 10558 10557 10556 10556 10556 10557 10556 10555 10555 10555 10555 10555 10554 10554 10554 10553 10553 10553 10554 10555 10555 10556 10556 10556 10556 10556 10557
10574 10584 10600 10600 10588 10583 10583 10581 10577 10575 10574 10568 10564 10564 10562 10559 10558 10554 10546 10546 10546 10540 10547 10561 10567 10575 10580 10582 10584 10576 10568 10569 10568 10569 10568 10562 10560 10557 10555 10555 10554 10554 10554 10554 10555 10553 10553 10553 10552 10552 10551 10550 10549 10547 10546 10545 10543 10543 10541 10541 10542 10541 10540 10539 10539 10540 10539 10540 10540 10541 10542 10542 10542 10541 10540 10539 10538 10538 10538 10538 10539 10540 10541 10541 10541 10542
10555 10559 10575 10586 10578 10568 10566 10568 10568 10566 10560 10552 10549 10549 10550 10549 10547 10542 10533 10530 10527 10521 10526 10535 10542 10551 10560 10568 10569 10557 10553 10557 10555 10554 10552 10547 10545 10542 10539 10538 10536 10535 10534 10534 10536 10535 10534 10533 10533 10535 10534 10533 10533 10531 10531 10529 10528 10527 10525 10524 10525 10524 10524 10522 10521 10521 10522 10522 10522 10522 10523 10524 10526 10526 10526 10526 10525 10525 10524 10523 10524 10524 10525 10525 10526 10527
10542 10539 10549 10565 10567 10556 10551 10554 10555 10549 10542 10538 10537 10537 10537 10535 10532 10527 10519 10514 10510 10505 10506 10510 10513 10525 10539 10549 10549 10541 10541 10542 10538 10537 10535 10530 10528 10525 10523 10522 10520 10519 10517 10515 10516 10517 10517 10515 10515 10515 10515 10514 10514 10513 10513 10512 10511 10511 10510 10509 10508 10507 10507 10505 10504 10503 10503 10504 10504 10503 10503 10504 10506 10508 10508 10508 10508 10509 10508 10508 10508 10508 10509 10509 10510 10510
10530 10525 10526 10538 10548 10547 10543 10540 10536 10532 10528 10526 10524 10523 10522 10519 10514 10507 10502 10503 10499 10489 10487 10487 10487 10497 10511 10520 10527 10528 10526 10523 10519 10518 10516 10514 10511 10508 10505 10504 10503 10502 10500 10498 10498 10498 10499 10498 10497 10497 10496 10495 10494 10494 10494 10493 10493 10493 10492 10492 10492 10491 10490 10488 10486 10485 10483 10483 10484 10484 10484 10484 10486 10487 10488 10489 10488 10489 10490 10490 10490 10490 10491 10492 10492 10493
10516 10512 10508 10513 10523 10529 10530 10524 10517 10515 10515 10512 10508 10507 10506 10502 10494 10484 10482 10491 10490 10475 10471 10469 10464 10472 10484 10492 10501 10505 10501 10499 10498 10496 10495 10495 10493 10490 10487 10485 10483 10483 10480 10479 10480 10479 10480 10480 10478 10477 10477 10476 10475 10475 10474 10473 10473 10472 10472 10471 10472 10472 10472 10471 10469 10467 10465 10463 10462 10462 10463 10464 10465 10466 10467 10468 10468 10468 10469 10470 10471 10472 10473 10473 10473 10474
10501 10497 10494 10495 10501 10506 10509 10508 10503 10500 10499 10496 10492 10491 10489 10483 10477 10469 10464 10472 10472 10461 10458 10455 10446 10451 10463 10468 10471 10471 10468 10470 10472 10471 10472 10472 10471 10470 10468 10465 10464 10463 10461 10460 10460 10459 10459 10459 10459 10458 10457 10457 10456 10455 10454 10453 10452 10452 10451 10449 10448 10449 10450 10450 10449 10448 10447 10445 10442 10440 10440 10441 10443 10444 10445 10446 10447 10447 10448 10449 10451 10452 10453 10454 10454 10455
10486 10482 10478 10478 10482 10486 10489 10491 10489 10485 10481 10477 10473 10472 10471 10466 10462 10456 10452 10453 10448 10442 10444 10442 10434 10437 10446 10447 10443 10438 10436 10439 10440 10441 10443 10445 10447 10447 10445 10445 10444 10443 10442 10440 10438 10438 10437 10437 10437 10437 10437 10438 10437 10436 10435 10433 10432 10431 10429 10428 10426 10425 10425 10425 10425 10425 10425 10425 10424 10422 10419 10418 10418 10420 10422 10424 10425 10426 10427 10428 10429 10430 10432 10433 10434 10435
10469 10467 10464 10461 10462 10465 10470 10473 10473 10469 10464 10458 10454 10452 10453 10452 10447 10441 10438 10434 10425 10424 10430 10425 10416 10422 10428 10425 10421 10418 10414 10411 10410 10410 10414 10417 10420 10421 10421 10422 10422 10421 10420 10419 10417 10416 10415 10415 10415 10415 10416 10416 10415 10414 10413 10412 10412 10410 10408 10406 10405 10403 10402 10401 10401 10401 10401 10402 10402 10402 10401 10399 10397 10397 10398 10400 10403 10404 10405 10407 10408 10408 10410 10411 10413 10414
10448 10448 10448 10444 10440 10442 10448 10452 10451 10448 10444 10439 10435 10434 10435 10436 10434 10427 10422 10416 10410 10411 10411 10403 10398 10402 10405 10402 10399 10398 10393 10390 10389 10388 10388 10390 10392 10395 10397 10397 10398 10398 10397 10396 10396 10395 10394 10394 10394 10394 10394 10394 10393 10392 10391 10390 10390 10389 10388 10386 10384 10383 10382 10380 10379 10378 10378 10379 10379 10380 10380 10380 10379 10378 10377 10377 10379 10381 10383 10385 10387 10388 10388 10388 10390 10393
10428 10428 10431 10429 10422 10422 10425 10429 10430 10426 10420 10417 10418 10418 10418 10419 10418 10413 10406 10403 10400 10392 10384 10386 10387 10382 10379 10382 10381 10376 10372 10369 10371 10371 10368 10367 10367 10368 10370 10372 10373 10375 10374 10374 10374 10374 10373 10373 10373 10373 10373 10372 10372 10371 10370 10369 10368 10367 10366 10366 10364 10363 10362 10360 10358 10356 10356 10356 10356 10357 10358 10359 10359 10359 10359 10358 10358 10359 10360 10362 10364 10366 10367 10368 10369 10371
10408 10407 10413 10412 10404 10404 10407 10408 10408 10403 10397 10396 10398 10400 10402 10402 10401 10400 10394 10388 10382 10367 10358 10370 10375 10359 10356 10366 10364 10357 10354 10352 10351 10351 10349 10348 10347 10346 10347 10348 10349 10350 10352 10353 10353 10352 10353 10352 10352 10351 10351 10351 10350 10349 10349 10349 10348 10347 10346 10345 10343 10342 10342 10341 10339 10337 10335 10334 10335 10335 10335 10336 10337 10338 10339 10340 10341 10342 10341 10341 10342 10343 10345 10347 10348 10350
10387 10386 10394 10391 10383 10386 10390 10388 10385 10380 10375 10375 10378 10380 10383 10386 10387 10385 10377 10370 10361 10344 10336 10348 10352 10342 10343 10349 10344 10338 10336 10332 10330 10329 10328 10329 10329 10328 10328 10327 10327 10328 10328 10329 10330 10330 10331 10331 10332 10332 10330 10330 10329 10328 10328 10328 10328 10328 10327 10325 10324 10323 10321 10321 10320 10319 10317 10315 10314 10314 10314 10315 10316 10317 10318 10319 10321 10323 10324 10324 10323 10323 10324 10325 10327 10329
10368 10370 10375 10371 10364 10366 10370 10369 10365 10357 10353 10357 10360 10362 10366 10371 10372 10365 10355 10348 10338 10323 10320 10327 10326 10325 10331 10332 10324 10319 10316 10312 10310 10310 10310 10310 10310 10310 10309 10309 10309 10308 10308 10308 10308 10308 10309 10309 10310 10311 10310 10309 10308 10307 10306 10306 10306 10306 10305 10305 10305 10304 10303 10302 10301 10300 10299 10297 10296 10294 10293 10294 10295 10297 10298 10298 10300 10302 10304 10305 10306 10306 10306 10306 10307 10308
10350 10352 10354 10351 10344 10346 10354 10354 10344 10336 10335 10339 10344 10350 10356 10356 10349 10340 10332 10327 10318 10309 10308 10308 10302 10305 10314 10312 10303 10298 10295 10294 10294 10293 10293 10292 10290 10289 10289 10289 10290 10290 10290 10290 10289 10289 10289 10289 10289 10290 10289 10288 10286 10285 10284 10283 10283 10283 10283 10283 10283 10283 10284 10284 10283 10283 10281 10280 10280 10278 10276 10274 10274 10275 10276 10278 10279 10282 10284 10285 10286 10287 10288 10288 10289 10289
10332 10331 10333 10331 10321 10325 10339 10336 10324 10320 10318 10322 10334 10344 10344 10334 10321 10314 10312 10309 10304 10298 10294 10290 10285 10286 10289 10286 10280 10278 10277 10277 10278 10277 10276 10274 10272 10271 10270 10270 10271 10271 10271 10271 10269 10269 10269 10269 10269 10269 10268 10266 10264 10263 10262 10261 10261 10261 10261 10262 10262 10262 10263 10263 10264 10265 10264 10263 10263 10263 10261 10258 10257 10257 10256 10257 10258 10260 10262 10265 10267 10268 10269 10270 10271 10272
10316 10312 10313 10311 10300 10305 10320 10316 10305 10300 10298 10312 10332 10332 10318 10308 10301 10297 10294 10291 10290 10284 10276 10272 10272 10269 10264 10261 10260 10259 10258 10259 10261 10261 10259 10257 10256 10255 10253 10253 10252 10251 10251 10251 10250 10249 10248 10247 10247 10246 10245 10245 10243 10241 10240 10240 10240 10241 10241 10241 10241 10241 10242 10243 10244 10245 10245 10245 10245 10245 10245 10244 10242 10241 10239 10238 10238 10237 10240 10243 10246 10248 10249 10251 10253 10254
10300 10294 10293 10292 10282 10285 10300 10298 10284 10277 10285 10307 10320 10308 10294 10289 10284 10277 10275 10275 10275 10269 10260 10255 10252 10248 10243 10242 10242 10241 10241 10242 10243 10244 10245 10242 10240 10239 10238 10237 10235 10233 10231 10230 10229 10229 10227 10225 10225 10224 10224 10223 10222 10221 10220 10219 10219 10221 10221 10221 10220 10220 10221 10222 10223 10224 10225 10226 10226 10226 10226 10226 10226 10225 10223 10222 10220 10219 10219 10220 10223 10226 10228 10230 10233 10235
10284 10280 10275 10272 10265 10264 10274 10276 10263 10260 10278 10293 10292 10285 10281 10272 10261 10255 10258 10263 10261 10253 10246 10238 10231 10226 10224 10223 10223 10223 10223 10225 10228 10232 10231 10226 10223 10224 10224 10223 10219 10216 10214 10211 10209 10208 10207 10205 10205 10205 10205 10204 10203 10202 10200 10198 10199 10201 10202 10201 10200 10201 10201 10201 10203 10203 10203 10205 10207 10207 10207 10207 10208 10208 10206 10205 10204 10203 10202 10201 10202 10203 10204 10208 10212 10214
10267 10263 10257 10254 10251 10247 10249 10253 10247 10249 10264 10271 10267 10266 10261 10249 10241 10239 10242 10247 10246 10235 10228 10222 10214 10210 10208 10206 10205 10204 10206 10211 10217 10220 10215 10206 10203 10206 10208 10206 10202 10198 10195 10193 10190 10189 10187 10186 10186 10187 10188 10188 10186 10184 10181 10179 10180 10182 10183 10182 10180 10180 10181 10181 10183 10183 10182 10184 10187 10188 10187 10188 10189 10189 10188 10187 10187 10186 10185 10184 10184 10184 10183 10186 10189 10192
10248 10243 10239 10235 10234 10232 10229 10232 10234 10235 10244 10251 10250 10244 10234 10227 10228 10226 10223 10228 10229 10220 10212 10205 10197 10195 10194 10191 10190 10190 10192 10197 10203 10206 10199 10186 10183 10186 10188 10186 10183 10178 10175 10173 10172 10170 10168 10167 10168 10170 10171 10171 10169 10166 10162 10161 10163 10164 10165 10164 10161 10159 10161 10161 10162 10162 10163 10166 10169 10168 10167 10167 10169 10170 10170 10169 10168 10169 10169 10168 10168 10166 10165 10165 10168 10171
10230 10226 10224 10217 10216 10218 10212 10210 10216 10219 10223 10229 10230 10223 10214 10209 10211 10207 10200 10205 10213 10208 10197 10188 10185 10184 10181 10179 10179 10178 10179 10182 10188 10191 10183 10170 10164 10165 10166 10166 10163 10159 10156 10154 10152 10151 10149 10150 10151 10153 10153 10152 10151 10147 10143 10144 10147 10148 10149 10148 10143 10141 10142 10142 10140 10141 10145 10149 10151 10150 10149 10148 10148 10149 10150 10150 10150 10150 10151 10152 10151 10151 10149 10148 10150 10153
10216 10212 10209 10200 10200 10205 10197 10192 10199 10202 10202 10205 10206 10204 10199 10194 10191 10183 10174 10182 10196 10192 10178 10174 10176 10174 10170 10168 10168 10167 10167 10169 10172 10173 10167 10156 10149 10145 10144 10146 10145 10141 10138 10137 10134 10133 10133 10133 10134 10135 10135 10133 10131 10129 10126 10127 10130 10131 10132 10130 10127 10125 10124 10122 10120 10123 10127 10130 10130 10130 10129 10128 10127 10128 10129 10130 10130 10131 10133 10134 10134 10134 10134 10133 10135 10137
10205 10200 10195 10190 10190 10192 10184 10179 10183 10184 10184 10184 10183 10182 10182 10177 10171 10162 10155 10162 10173 10171 10165 10164 10164 10162 10159 10157 10155 10154 10154 10153 10152 10153 10151 10144 10137 10130 10126 10126 10125 10123 10121 10119 10117 10116 10117 10119 10119 10119 10119 10116 10112 10110 10110 10110 10112 10114 10113 10111 10109 10108 10105 10102 10104 10107 10109 10109 10109 10107 10106 10105 10105 10106 10107 10108 10110 10111 10112 10114 10115 10116 10116 10117 10119 10121
10192 10187 10184 10184 10183 10179 10172 10166 10166 10170 10174 10169 10159 10157 10159 10156 10151 10147 10144 10145 10148 10153 10157 10155 10148 10146 10147 10144 10140 10138 10137 10135 10133 10135 10135 10131 10125 10119 10112 10107 10105 10105 10104 10103 10102 10101 10102 10105 10105 10104 10103 10099 10093 10092 10092 10093 10095 10097 10095 10092 10091 10089 10085 10085 10089 10091 10089 10089 10088 10086 10084 10082 10081 10083 10084 10085 10088 10091 10094 10095 10095 10096 10098 10099 10100 10103
10176 10172 10174 10177 10172 10164 10160 10155 10152 10158 10163 10154 10141 10138 10137 10132 10131 10133 10133 10132 10135 10140 10142 10138 10133 10131 10129 10128 10126 10123 10122 10121 10118 10117 10118 10116 10111 10105 10098 10091 10089 10089 10089 10088 10087 10086 10087 10091 10092 10090 10087 10082 10076 10073 10074 10075 10078 10079 10077 10074 10072 10070 10069 10071 10073 10072 10070 10070 10068 10066 10064 10062 10060 10062 10063 10064 10065 10069 10075 10077 10076 10076 10079 10079 10080 10083
10158 10156 10161 10164 10156 10148 10150 10149 10140 10140 10145 10138 10126 10121 10119 10116 10117 10120 10120 10121 10125 10126 10123 10119 10118 10115 10110 10109 10109 10107 10107 10107 10104 10102 10102 10100 10095 10089 10084 10079 10076 10076 10076 10075 10074 10072 10073 10076 10078 10076 10073 10067 10060 10056 10055 10057 10060 10060 10058 10056 10054 10053 10054 10056 10055 10053 10052 10051 10049 10046 10045 10043 10043 10043 10044 10046 10046 10048 10054 10058 10057 10057 10059 10059 10060 10063
10143 10141 10145 10149 10141 10133 10138 10140 10126 10120 10127 10123 10110 10105 10106 10106 10107 10107 10108 10111 10112 10109 10104 10102 10102 10101 10095 10093 10093 10093 10092 10091 10089 10088 10086 10083 10080 10074 10069 10067 10065 10064 10064 10062 10060 10059 10058 10059 10061 10061 10059 10054 10045 10039 10038 10039 10041 10042 10041 10038 10036 10037 10038 10038 10036 10035 10035 10034 10031 10029 10027 10026 10026 10027 10028 10029 10029 10031 10035 10039 10038 10037 10039 10039 10040 10044
10130 10128 10129 10133 10128 10120 10124 10125 10107 10099 10110 10111 10099 10094 10094 10093 10094 10095 10096 10100 10100 10095 10089 10085 10085 10086 10082 10079 10080 10080 10078 10075 10073 10072 10069 10067 10066 10061 10056 10055 10054 10051 10051 10049 10046 10045 10043 10043 10044 10045 10044 10040 10031 10023 10022 10021 10021 10024 10025 10023 10020 10021 10022 10021 10019 10019 10019 10017 10015 10013 10010 10009 10010 10011 10010 10011 10011 10013 10017 10020 10019 10019 10020 10020 10020 10024
10116 10114 10115 10118 10113 10106 10109 10106 10087 10082 10097 10100 10091 10086 10081 10077 10080 10081 10081 10084 10085 10081 10077 10073 10071 10072 10069 10067 10067 10066 10063 10061 10058 10057 10055 10052 10050 10047 10045 10044 10042 10038 10036 10034 10032 10031 10029 10028 10028 10028 10028 10026 10017 10009 10006 10004 10002 10003 10007 10007 10006 10005 10005 10005 10004 10003 10002 10000 9997 9995 9993 9992 9994 9994 9992 9992 9992 9994 9998 10000 10000 10001 10002 10001 10002 10005
10100 10100 10103 10103 10096 10091 10095 10089 10071 10069 10085 10089 10080 10075 10069 10063 10066 10065 10063 10067 10069 10067 10066 10062 10059 10058 10057 10054 10052 10051 10049 10047 10044 10043 10042 10038 10036 10035 10032 10030 10028 10024 10021 10019 10017 10017 10015 10014 10014 10013 10011 10009 10003 9995 9991 9988 9986 9985 9987 9989 9989 9988 9988 9989 9987 9987 9987 9983 9980 9978 9977 9977 9979 9979 9977 9975 9975 9976 9979 9981 9981 9982 9984 9984 9984 9986
10082 10087 10092 10087 10081 10079 10080 10076 10060 10056 10071 10077 10068 10061 10056 10052 10052 10049 10047 10050 10053 10053 10053 10050 10046 10045 10043 10040 10039 10037 10035 10034 10032 10030 10029 10025 10023 10022 10019 10016 10014 10010 10007 10005 10003 10002 10002 10001 9999 9997 9995 9991 9986 9982 9978 9975 9971 9969 9968 9969 9970 9971 9974 9976 9973 9971 9970 9967 9963 9963 9963 9962 9963 9964 9962 9960 9959 9959 9961 9963 9963 9964 9968 9970 9968 9968
10064 10077 10077 10069 10071 10072 10066 10057 10046 10044 10059 10066 10054 10044 10043 10043 10041 10038 10034 10035 10037 10036 10036 10034 10033 10031 10029 10027 10026 10024 10022 10021 10019 10017 10016 10013 10011 10009 10006 10003 10000 9997 9994 9993 9990 9989 9988 9986 9984 9981 9978 9974 9971 9970 9967 9962 9957 9953 9952 9953 9955 9956 9959 9960 9957 9954 9953 9951 9949 9950 9949 9948 9948 9947 9946 9945 9944 9944 9945 9946 9946 9947 9952 9955 9952 9951
10049 10066 10063 10053 10061 10065 10052 10040 10032 10032 10045 10051 10039 10030 10032 10032 10030 10028 10026 10025 10024 10021 10018 10016 10016 10015 10013 10012 10011 10010 10009 10008 10006 10004 10002 10000 9997 9995 9993 9990 9987 9984 9982 9980 9979 9977 9973 9970 9968 9965 9962 9960 9958 9957 9954 9949 9944 9941 9941 9942 9942 9942 9942 9941 9940 9938 9936 9934 9935 9935 9935 9933 9932 9931 9929 9930 9929 9929 9929 9930 9930 9931 9935 9938 9935 9933
10035 10052 10048 10041 10048 10051 10041 10029 10021 10020 10028 10033 10025 10020 10021 10020 10018 10017 10015 10013 10011 10009 10005 10002 10000 9998 9997 9996 9996 9996 9996 9995 9993 9991 9989 9986 9983 9980 9978 9976 9975 9973 9970 9968 9966 9964 9960 9956 9952 9949 9947 9947 9945 9942 9939 9937 9934 9933 9932 9930 9928 9927 9927 9925 9925 9924 9921 9919 9920 9920 9919 9919 9918 9916 9915 9915 9915 9915 9915 9915 9914 9916 9919 9921 9920 9918